When you browse on this site, cookies collect data to enhance your experience and personalize the content and advertising you see.
Visit our Privacy Policy to learn more. By continuing to use the site, you agree to this use of cookies and data.
  • Em Portugal
  • Lista de países
  • Para 7 dias
  • Temperatura da água
  • Mapas de satélite
  • Mapa do tempo
  • Widgets de tempo
  • user-avatar
    Iniciar Sessão

    Previsão horária em Luanda

    Hoje, 22 Maio, Quarta-feira

    Tempo Temperatura Precipitação Vento Pressão Humidade
    00:00 +26°C° 0 mm 1 m/s 753 mmHg 88%
    01:00 +25°C° 0 mm 1 m/s 754 mmHg 90%
    02:00 +25°C° 0 mm 1 m/s 753 mmHg 91%
    03:00 +25°C° 0 mm 1 m/s 753 mmHg 92%
    04:00 +25°C° 0 mm 1 m/s 753 mmHg 93%
    05:00 +25°C° 0 mm 1 m/s 753 mmHg 92%
    06:00 +25°C° 0 mm 2 m/s 753 mmHg 91%
    07:00 +25°C° 0 mm 2 m/s 754 mmHg 90%
    08:00 +27°C° 0 mm 1 m/s 754 mmHg 81%
    09:00 +29°C° 0 mm 1 m/s 754 mmHg 72%
    10:00 +29°C° 0 mm 0 m/s 755 mmHg 63%
    11:00 +32°C° 0 mm 1 m/s 754 mmHg 61%
    12:00 +33°C° 0 mm 3 m/s 754 mmHg 59%
    13:00 +34°C° 0 mm 4 m/s 753 mmHg 57%
    14:00 +33°C° 0 mm 4 m/s 753 mmHg 61%
    15:00 +32°C° 0 mm 4 m/s 752 mmHg 64%
    16:00 +30°C° 0 mm 4 m/s 752 mmHg 67%
    17:00 +29°C° 0 mm 4 m/s 752 mmHg 72%
    18:00 +28°C° 0 mm 4 m/s 753 mmHg 76%
    19:00 +27°C° 0 mm 3 m/s 753 mmHg 81%
    20:00 +27°C° 0 mm 3 m/s 754 mmHg 83%
    21:00 +26°C° 0 mm 3 m/s 754 mmHg 85%
    22:00 +26°C° 0 mm 3 m/s 755 mmHg 86%
    23:00 +26°C° 0 mm 3 m/s 754 mmHg 88%

    Amanhã, 23 Maio, Quinta-feira

    Tempo Temperatura Precipitação Vento Pressão Humidade
    00:00 +26°C° 0 mm 3 m/s 754 mmHg 89%
    01:00 +25°C° 0 mm 3 m/s 754 mmHg 91%
    02:00 +25°C° 0 mm 3 m/s 754 mmHg 91%
    03:00 +25°C° 0 mm 3 m/s 753 mmHg 90%
    04:00 +25°C° 0 mm 3 m/s 753 mmHg 90%
    05:00 +25°C° 0 mm 2 m/s 753 mmHg 90%
    06:00 +25°C° 0 mm 2 m/s 753 mmHg 89%
    07:00 +25°C° 0 mm 2 m/s 753 mmHg 89%
    08:00 +27°C° 0 mm 2 m/s 754 mmHg 80%
    09:00 +29°C° 0 mm 1 m/s 754 mmHg 72%
    10:00 +31°C° 0 mm 1 m/s 755 mmHg 63%
    11:00 +32°C° 0 mm 2 m/s 754 mmHg 59%
    12:00 +34°C° 0 mm 2 m/s 753 mmHg 55%
    13:00 +35°C° 0 mm 3 m/s 752 mmHg 51%
    14:00 +34°C° 0 mm 4 m/s 752 mmHg 56%
    15:00 +33°C° 0 mm 5 m/s 751 mmHg 61%
    16:00 +32°C° 0 mm 6 m/s 751 mmHg 66%
    17:00 +30°C° 0 mm 5 m/s 751 mmHg 72%
    18:00 +28°C° 0 mm 5 m/s 752 mmHg 77%
    19:00 +27°C° 0 mm 5 m/s 752 mmHg 83%
    20:00 +27°C° 0 mm 4 m/s 753 mmHg 84%
    21:00 +26°C° 0 mm 3 m/s 753 mmHg 86%
    22:00 +26°C° 0 mm 3 m/s 754 mmHg 87%
    23:00 +26°C° 0 mm 3 m/s 754 mmHg 89%

    Depois de amanhã, 24 Maio, Sexta-feira

    Tempo Temperatura Precipitação Vento Pressão Humidade
    00:00 +26°C° 0 mm 2 m/s 754 mmHg 90%
    01:00 +25°C° 0 mm 2 m/s 754 mmHg 91%
    02:00 +25°C° 0 mm 2 m/s 753 mmHg 92%
    03:00 +25°C° 0 mm 2 m/s 753 mmHg 92%
    04:00 +25°C° 0 mm 2 m/s 753 mmHg 92%
    05:00 +25°C° 0 mm 2 m/s 753 mmHg 92%
    06:00 +25°C° 0 mm 2 m/s 754 mmHg 91%
    07:00 +25°C° 0 mm 3 m/s 754 mmHg 91%
    08:00 +26°C° 0 mm 2 m/s 754 mmHg 84%
    09:00 +28°C° 0 mm 2 m/s 754 mmHg 78%
    10:00 +29°C° 0 mm 2 m/s 755 mmHg 71%
    11:00 +30°C° 0 mm 3 m/s 754 mmHg 65%
    12:00 +33°C° 0 mm 3 m/s 753 mmHg 58%
    13:00 +35°C° 0 mm 3 m/s 752 mmHg 52%
    14:00 +34°C° 0 mm 4 m/s 752 mmHg 56%
    15:00 +33°C° 0 mm 4 m/s 752 mmHg 60%
    16:00 +32°C° 0 mm 5 m/s 751 mmHg 64%
    17:00 +30°C° 0 mm 5 m/s 752 mmHg 69%
    18:00 +29°C° 0 mm 5 m/s 752 mmHg 74%
    19:00 +27°C° 0 mm 4 m/s 753 mmHg 80%
    20:00 +27°C° 0 mm 3 m/s 753 mmHg 82%
    21:00 +26°C° 0 mm 3 m/s 754 mmHg 84%
    22:00 +26°C° 0 mm 2 m/s 755 mmHg 86%
    23:00 +26°C° 0 mm 2 m/s 754 mmHg 86%

    25 Maio, Sábado

    Tempo Temperatura Precipitação Vento Pressão Humidade
    00:00 +26°C° 0 mm 2 m/s 754 mmHg 87%
    01:00 +26°C° 0 mm 3 m/s 754 mmHg 87%
    02:00 +25°C° 0 mm 3 m/s 754 mmHg 88%
    03:00 +25°C° 0 mm 3 m/s 753 mmHg 89%
    04:00 +25°C° 0 mm 3 m/s 753 mmHg 91%
    05:00 +25°C° 0 mm 3 m/s 754 mmHg 90%
    06:00 +25°C° 0 mm 3 m/s 754 mmHg 90%
    07:00 +25°C° 0 mm 3 m/s 755 mmHg 90%
    08:00 +27°C° 0 mm 2 m/s 755 mmHg 82%
    09:00 +28°C° 0 mm 1 m/s 755 mmHg 75%
    10:00 +30°C° 0 mm 1 m/s 755 mmHg 67%
    11:00 +31°C° 0 mm 1 m/s 754 mmHg 62%
    12:00 +32°C° 0 mm 2 m/s 753 mmHg 57%
    13:00 +34°C° 0 mm 3 m/s 752 mmHg 51%
    14:00 +34°C° 0 mm 4 m/s 752 mmHg 55%
    15:00 +33°C° 0 mm 4 m/s 752 mmHg 59%
    16:00 +32°C° 0 mm 5 m/s 751 mmHg 63%
    17:00 +30°C° 0 mm 5 m/s 752 mmHg 68%
    18:00 +28°C° 0 mm 5 m/s 752 mmHg 74%
    19:00 +27°C° 0 mm 5 m/s 753 mmHg 79%
    20:00 +27°C° 0 mm 4 m/s 753 mmHg 81%
    21:00 +26°C° 0 mm 4 m/s 753 mmHg 83%
    22:00 +26°C° 0 mm 3 m/s 754 mmHg 85%
    23:00 +26°C° 0 mm 3 m/s 754 mmHg 87%

    26 Maio, Domingo

    Tempo Temperatura Precipitação Vento Pressão Humidade
    00:00 +25°C° 0 mm 3 m/s 753 mmHg 89%
    01:00 +25°C° 0 mm 2 m/s 753 mmHg 91%
    02:00 +25°C° 0 mm 2 m/s 753 mmHg 91%
    03:00 +24°C° 0 mm 2 m/s 753 mmHg 92%
    04:00 +24°C° 0 mm 2 m/s 753 mmHg 93%
    05:00 +24°C° 0 mm 2 m/s 753 mmHg 92%
    06:00 +24°C° 0 mm 2 m/s 754 mmHg 91%
    07:00 +25°C° 0 mm 3 m/s 754 mmHg 90%
    08:00 +27°C° 0 mm 2 m/s 754 mmHg 81%
    09:00 +29°C° 0 mm 1 m/s 754 mmHg 71%
    10:00 +29°C° 0 mm 0 m/s 754 mmHg 62%
    11:00 +32°C° 0 mm 1 m/s 753 mmHg 59%
    12:00 +34°C° 0 mm 3 m/s 753 mmHg 56%
    13:00 +34°C° 0 mm 4 m/s 752 mmHg 52%
    14:00 +33°C° 0 mm 4 m/s 751 mmHg 57%
    15:00 +32°C° 0 mm 5 m/s 751 mmHg 61%
    16:00 +30°C° 0 mm 6 m/s 751 mmHg 65%
    17:00 +29°C° 0 mm 5 m/s 751 mmHg 69%
    18:00 +28°C° 0 mm 5 m/s 752 mmHg 73%
    19:00 +27°C° 0 mm 5 m/s 753 mmHg 77%
    20:00 +27°C° 0 mm 4 m/s 753 mmHg 80%
    21:00 +26°C° 0 mm 4 m/s 753 mmHg 83%
    22:00 +26°C° 0 mm 3 m/s 754 mmHg 86%
    23:00 +25°C° 0 mm 3 m/s 754 mmHg 87%

    27 Maio, Segunda-feira

    Tempo Temperatura Precipitação Vento Pressão Humidade
    00:00 +25°C° 0 mm 3 m/s 753 mmHg 88%
    01:00 +25°C° 0 mm 3 m/s 753 mmHg 89%
    02:00 +24°C° 0 mm 2 m/s 753 mmHg 90%
    03:00 +24°C° 0 mm 2 m/s 753 mmHg 91%
    04:00 +24°C° 0 mm 2 m/s 753 mmHg 92%
    05:00 +24°C° 0 mm 2 m/s 753 mmHg 91%
    06:00 +24°C° 0 mm 2 m/s 753 mmHg 90%
    07:00 +25°C° 0 mm 2 m/s 754 mmHg 89%
    08:00 +27°C° 0 mm 2 m/s 754 mmHg 79%
    09:00 +29°C° 0 mm 1 m/s 754 mmHg 70%
    10:00 +31°C° 0 mm 1 m/s 754 mmHg 61%
    11:00 +32°C° 0 mm 2 m/s 753 mmHg 56%
    12:00 +34°C° 0 mm 3 m/s 753 mmHg 51%
    13:00 +36°C° 0 mm 3 m/s 752 mmHg 46%
    14:00 +34°C° 0 mm 4 m/s 751 mmHg 53%
    15:00 +33°C° 0 mm 5 m/s 751 mmHg 60%
    16:00 +32°C° 0 mm 6 m/s 751 mmHg 67%
    17:00 +29°C° 0 mm 5 m/s 751 mmHg 72%
    18:00 +28°C° 0 mm 5 m/s 752 mmHg 77%
    19:00 +27°C° 0 mm 5 m/s 752 mmHg 82%
    20:00 +26°C° 0 mm 4 m/s 752 mmHg 85%
    21:00 +26°C° 0 mm 3 m/s 753 mmHg 87%
    22:00 +25°C° 0 mm 2 m/s 753 mmHg 90%
    23:00 +25°C° 0 mm 2 m/s 753 mmHg 91%
    Mostrar mais